Theta_e
333 334 342 343 343 344 345 345 342 338 337 337 336 332 330 331 332 333 334 335 335 335 335 335 335 335 335 336 337 337 337 337 337 339 341 342 342 342 342 342 342 340 337 333 330 323 320 323 320 320 326 322 317 318 326 328 329 331 330 326 325 324 323 323 323 325 327 328 329 331 330 329 332 332 331 332 330 327 329 331 331 331 332 332 332
330 334 343 342 343 345 344 345 342 338 337 337 335 332 329 330 331 331 333 335 336 336 336 336 336 336 336 337 338 339 339 340 340 342 342 342 342 342 342 340 338 333 327 324 321 315 315 320 318 317 318 317 319 324 330 332 334 336 335 333 333 332 330 327 323 321 323 327 328 329 331 332 333 334 333 332 331 327 327 329 330 331 332 332 333
326 335 342 340 343 345 345 345 342 338 337 337 336 332 329 329 330 331 333 335 337 338 338 337 337 337 338 338 339 339 340 340 341 342 342 343 342 342 341 337 332 324 319 318 315 317 319 318 315 314 314 316 324 329 332 334 335 335 334 335 335 335 336 335 332 327 323 326 329 329 330 332 334 335 334 333 332 327 328 331 330 332 333 333 333
326 335 340 339 343 344 345 344 341 339 337 337 336 332 329 330 331 332 334 337 339 339 339 339 338 339 340 340 340 340 340 340 341 341 342 341 341 340 338 333 326 320 322 325 325 325 321 316 315 314 312 315 324 331 332 333 334 333 334 334 335 335 335 335 336 334 328 325 327 328 329 331 333 335 334 333 332 328 330 333 332 332 332 332 332
324 334 338 339 343 343 343 343 340 338 337 338 337 333 330 329 332 333 335 338 341 339 339 339 339 340 340 340 340 339 339 340 339 340 340 340 340 337 334 328 323 323 328 332 332 328 322 317 316 315 313 314 322 329 331 333 333 333 334 334 335 335 335 335 335 335 331 325 325 328 329 331 331 334 334 332 331 329 331 333 333 333 332 332 332
323 332 338 339 342 341 341 342 339 337 337 338 337 334 330 330 331 333 335 338 340 339 338 338 339 339 339 340 339 339 339 339 339 339 339 339 337 333 332 326 322 328 331 333 333 329 325 322 321 319 316 316 322 328 331 332 332 333 334 334 335 335 335 334 335 334 332 326 325 326 329 331 332 334 333 330 331 331 332 331 332 333 333 333 333
320 329 340 338 339 340 340 340 338 337 337 338 337 335 332 331 331 333 336 338 338 339 338 337 339 339 338 338 338 338 338 338 338 338 337 335 332 330 332 329 327 331 332 333 333 331 330 328 326 324 320 320 326 329 331 331 331 333 333 333 334 335 334 333 334 334 331 327 325 325 328 330 332 335 332 330 332 332 333 332 331 333 333 333 333
319 328 340 338 337 340 340 337 337 337 337 338 338 336 334 333 331 333 337 336 336 338 337 336 338 338 337 337 336 336 336 336 337 338 336 331 329 332 334 334 333 332 333 334 334 334 333 330 327 325 322 325 328 329 329 330 331 332 332 331 330 333 334 333 333 332 330 327 326 326 327 328 331 335 333 331 333 334 335 333 332 333 333 334 334
321 328 337 337 336 340 340 336 337 336 337 338 338 339 336 334 332 336 336 333 335 337 335 334 334 333 332 332 334 334 335 335 336 337 335 330 329 333 335 334 334 333 334 334 334 333 329 327 325 323 323 326 328 328 329 330 331 331 331 329 328 328 331 333 333 332 330 328 327 326 327 328 329 333 333 331 333 333 334 333 332 334 334 334 334
326 328 334 336 336 340 339 335 337 335 336 337 339 340 338 336 335 338 337 334 335 335 333 331 329 328 326 326 329 331 334 335 336 336 334 330 329 334 333 331 334 334 332 332 332 329 326 326 324 323 324 326 326 328 330 330 330 329 329 328 326 326 328 332 333 332 332 331 329 327 327 328 328 332 332 332 332 332 332 333 332 333 334 334 334
329 330 332 334 337 341 337 335 336 335 336 336 339 340 340 339 338 339 338 338 335 332 331 329 327 326 326 327 328 327 328 330 333 334 333 331 331 334 330 329 335 332 330 332 330 327 327 326 325 324 324 325 327 328 329 329 329 329 328 327 326 324 326 331 332 332 332 332 331 328 328 328 328 330 332 334 334 333 333 333 333 333 333 333 333
331 331 330 334 339 340 337 335 336 336 337 336 340 341 341 339 339 339 338 339 335 331 330 328 327 327 329 330 328 324 321 320 324 329 331 331 332 334 329 330 335 333 332 332 328 328 328 327 327 325 325 326 327 329 328 328 329 328 327 326 324 323 326 330 332 333 331 332 332 329 328 329 329 331 334 335 335 334 334 333 333 333 333 333 333
333 332 329 335 341 341 337 336 336 336 337 337 339 341 342 340 339 339 339 338 333 331 329 327 327 330 332 330 325 321 319 317 318 324 329 331 331 333 330 331 335 333 331 328 327 329 328 328 328 326 326 327 327 328 328 328 328 327 327 325 323 322 325 330 332 333 331 331 331 330 329 329 329 331 334 335 335 335 335 334 333 333 333 334 333
331 330 328 335 341 342 340 337 336 337 337 337 340 341 342 340 340 339 339 338 334 330 328 326 329 333 334 331 328 324 321 319 321 323 326 329 329 330 330 332 334 330 327 326 328 328 328 328 327 327 327 326 327 327 327 327 326 325 325 323 321 321 325 330 332 332 332 331 331 330 329 329 330 331 334 335 335 335 334 334 334 334 334 334 335
328 325 324 332 340 343 343 340 336 337 338 338 339 340 341 340 340 339 338 337 333 330 327 328 333 337 336 335 333 330 324 320 325 325 325 326 325 328 330 333 332 327 326 328 328 328 328 328 327 328 327 327 326 326 327 326 324 323 322 322 320 320 326 331 332 332 331 331 331 330 329 330 330 331 335 335 335 335 335 335 335 335 334 335 336
331 327 326 331 338 343 344 342 339 338 338 339 339 340 341 339 340 339 338 338 333 330 327 330 337 338 338 338 336 334 328 320 322 326 328 328 326 328 331 333 332 327 327 327 328 328 328 328 328 327 326 327 326 326 325 323 322 322 323 323 321 322 327 331 332 332 332 332 332 331 330 331 331 332 335 335 335 335 336 336 336 336 336 336 336
335 332 333 334 338 342 343 344 342 341 340 340 339 339 340 338 340 337 338 339 333 331 327 332 337 338 339 338 337 336 331 323 321 322 326 328 329 330 332 333 331 326 327 327 327 328 328 328 327 327 327 326 325 325 323 322 321 322 324 324 324 325 329 332 332 332 332 332 332 331 331 331 331 333 335 335 335 336 337 337 337 337 336 337 336
338 336 336 336 338 342 344 343 342 343 341 342 340 340 339 338 340 337 338 339 335 332 328 333 336 337 339 337 337 336 333 328 324 322 321 323 328 330 331 330 327 326 327 327 327 328 328 328 327 327 327 326 325 323 322 321 321 322 323 325 326 328 330 332 333 332 332 332 332 332 332 332 332 334 335 335 335 335 336 336 336 336 336 337 336
340 339 338 337 339 342 344 343 343 343 341 342 341 341 341 339 340 338 338 339 336 332 329 334 336 335 337 336 336 336 335 332 329 326 321 320 324 327 328 324 323 327 328 327 327 327 327 327 327 327 326 325 324 323 322 320 320 321 322 325 327 330 332 332 333 333 332 333 333 333 333 332 333 334 335 335 336 335 336 336 336 336 336 336 336
341 340 340 339 340 342 343 342 343 343 340 341 342 342 341 339 341 340 339 338 337 334 331 335 336 335 336 336 336 335 335 334 333 328 323 321 320 323 325 323 324 326 327 327 327 327 327 327 327 326 325 324 322 320 318 317 319 322 324 326 327 330 333 333 333 333 333 333 334 333 332 332 333 335 335 336 336 335 336 336 336 336 336 335 335
342 341 342 340 341 342 342 343 342 342 341 341 342 342 340 340 340 339 340 338 338 337 334 336 337 336 335 336 335 334 334 334 334 330 327 325 320 320 322 323 325 326 327 327 327 327 327 327 326 326 325 322 319 317 317 319 322 324 327 328 329 330 333 334 333 333 334 334 333 332 332 333 333 334 335 335 335 336 336 336 336 335 335 334 334
342 342 342 341 341 342 342 342 342 341 342 342 341 341 340 340 339 339 339 339 338 339 337 336 337 336 335 335 335 334 333 332 332 330 328 326 322 321 321 321 322 324 326 326 326 326 326 326 325 324 321 317 315 318 322 324 325 327 328 329 330 330 332 334 333 333 334 334 332 331 332 332 334 335 335 336 335 336 336 335 335 334 334 333 333
342 342 342 342 342 342 342 342 342 341 342 342 340 340 340 340 340 338 339 339 339 339 338 337 336 336 336 335 335 334 332 330 330 329 328 327 326 324 321 320 319 319 320 321 322 322 322 321 319 317 314 314 319 324 327 327 328 329 329 330 331 331 333 335 334 334 335 333 331 331 332 333 335 335 335 336 336 335 335 334 333 332 330 329 328
342 342 341 342 342 342 342 340 341 341 341 341 340 340 340 340 339 339 339 339 340 339 339 337 336 336 335 334 333 332 332 331 330 331 332 328 324 322 321 319 317 317 317 316 315 315 315 314 314 313 315 321 326 328 329 330 331 331 331 330 331 332 333 335 334 335 334 332 330 331 333 333 335 335 336 335 335 335 334 332 330 328 327 325 323
342 342 341 342 342 341 341 339 339 341 340 340 339 339 340 341 339 339 339 339 340 339 339 337 336 336 335 334 333 332 332 330 328 330 331 326 321 320 319 317 316 316 316 315 314 313 313 313 314 317 322 327 329 331 331 332 334 334 333 332 333 333 334 335 335 335 334 331 331 332 334 334 335 335 336 335 335 333 330 328 326 326 324 323 321
341 342 342 341 342 341 340 339 339 339 339 339 339 338 340 341 338 338 339 339 339 339 339 338 336 336 335 335 334 333 331 327 325 328 329 326 322 321 319 318 316 315 316 315 314 314 314 315 317 322 326 329 331 334 334 335 336 336 335 335 335 334 334 335 335 335 333 331 332 334 335 335 335 335 335 334 334 331 327 326 324 324 323 322 319
341 342 341 341 341 340 340 339 339 338 339 339 338 338 340 340 338 338 340 339 339 339 339 338 336 336 336 335 334 334 330 325 327 329 329 327 323 321 320 320 317 315 315 314 315 315 316 319 323 328 329 331 334 335 335 336 336 336 336 336 335 335 335 335 335 334 332 332 334 335 335 335 334 335 334 333 332 329 327 325 324 323 322 321 317
342 342 341 341 340 340 339 338 339 339 338 339 338 338 340 340 338 339 340 339 339 339 339 338 337 336 336 336 335 334 331 327 329 330 329 327 325 325 326 325 321 317 314 314 316 317 320 326 330 332 332 334 335 336 336 336 336 336 336 335 335 335 335 335 335 334 332 333 335 336 335 334 334 334 333 332 330 328 326 325 324 323 322 320 316
342 341 341 341 340 339 338 337 339 340 339 339 338 338 340 341 339 339 340 339 339 339 338 339 338 336 336 336 335 335 332 329 331 330 329 328 328 330 330 329 327 321 314 314 316 319 325 331 334 335 336 335 336 336 336 336 337 335 334 334 334 335 335 335 335 333 332 334 336 335 334 333 333 333 331 329 327 326 325 325 324 322 322 320 317
342 341 341 341 340 339 338 337 338 340 339 338 338 338 340 341 339 339 340 339 340 339 338 338 338 336 336 336 336 335 331 330 332 331 329 328 330 332 331 331 331 327 322 318 318 323 330 334 336 337 337 337 336 336 336 336 335 333 332 331 333 335 335 336 335 333 333 335 335 334 334 333 333 331 328 327 327 326 325 324 323 320 320 320 318
342 341 341 340 340 339 339 338 338 340 339 338 338 338 339 340 339 339 339 339 339 339 338 338 338 336 335 336 336 333 330 332 333 331 331 330 331 332 332 333 334 333 331 327 325 332 336 336 338 338 337 337 336 336 336 335 333 331 331 330 333 335 335 335 334 333 333 334 334 333 333 332 331 329 328 328 327 325 325 323 321 320 320 320 317
342 341 340 340 340 339 339 338 338 339 339 338 338 338 338 339 339 338 338 339 339 339 338 338 338 337 336 336 335 332 330 333 333 332 332 332 333 334 334 335 335 335 335 333 331 335 339 339 339 339 338 337 337 336 336 333 331 331 332 333 334 335 335 335 334 333 333 333 333 332 331 330 329 328 328 327 325 324 323 322 321 321 320 319 317
342 341 340 340 340 340 340 339 338 339 339 338 338 338 338 338 338 338 338 339 339 339 339 338 338 336 336 336 334 331 330 334 334 332 332 332 333 334 335 335 336 337 336 336 333 334 339 340 339 339 339 337 336 336 335 332 331 332 332 333 334 334 335 335 334 333 333 333 332 330 329 328 327 327 326 323 320 319 318 318 319 319 319 319 318
342 341 341 340 340 340 340 339 338 338 338 338 338 338 338 338 338 338 338 338 339 338 337 337 337 336 336 336 334 332 332 334 334 333 332 332 333 334 334 335 336 337 336 336 334 333 338 340 339 339 339 338 336 336 333 331 331 331 332 333 333 334 335 335 334 333 333 331 330 329 328 327 326 324 321 318 316 315 315 315 316 316 316 318 318
343 341 341 340 340 340 340 339 338 338 338 338 338 338 338 338 337 337 337 338 338 337 336 336 336 335 336 336 335 334 334 335 335 335 333 333 334 334 334 335 337 338 337 336 336 336 339 341 340 339 339 337 336 335 332 330 331 332 332 333 334 334 335 334 334 333 332 330 329 328 326 325 324 322 319 316 315 314 313 313 312 313 315 316 316
343 342 341 340 340 340 340 340 339 338 339 339 338 337 337 337 336 336 336 337 338 336 334 335 335 335 336 336 335 335 334 335 336 336 334 333 334 334 334 335 337 337 337 338 338 339 340 340 340 339 338 337 335 334 331 330 330 332 333 333 334 335 335 334 334 332 330 329 328 327 325 323 322 320 318 316 315 313 312 310 309 311 313 315 315
343 342 341 340 340 340 340 340 340 339 339 339 338 337 337 336 335 335 336 336 336 334 333 334 335 335 336 335 336 336 336 337 337 337 335 333 333 334 335 335 336 337 337 338 338 339 340 340 340 339 338 336 334 332 331 330 331 333 333 334 335 335 334 334 333 331 329 328 327 326 324 322 320 319 317 315 313 311 309 308 308 309 312 314 315
343 343 342 341 340 340 340 340 340 340 339 338 338 337 336 336 335 334 335 335 333 332 332 334 335 335 336 336 336 337 338 338 338 337 335 333 332 334 335 336 336 336 338 338 339 339 340 340 339 338 337 335 332 331 331 331 332 333 333 334 335 334 334 333 331 329 328 327 325 324 321 320 319 317 315 312 311 309 307 306 306 309 312 313 313
343 342 342 341 341 340 340 340 339 339 339 339 337 337 337 337 337 337 337 336 333 333 333 334 334 335 336 336 337 337 338 339 338 337 335 332 331 334 336 336 336 337 338 339 339 340 340 340 339 337 335 333 331 331 331 330 330 330 330 331 333 333 332 331 330 328 327 325 324 321 320 319 318 315 313 310 309 307 305 304 305 308 312 312 312
343 342 342 341 341 340 339 339 339 339 339 339 338 338 338 338 338 339 339 338 336 334 335 335 334 335 337 337 338 338 338 339 338 336 335 332 331 336 338 337 337 338 338 339 339 339 340 339 339 336 332 331 331 330 330 330 327 326 327 329 330 331 330 330 328 326 324 322 321 320 319 318 316 313 310 309 308 305 304 304 304 306 309 310 310
342 342 342 341 340 340 340 339 339 339 339 339 339 339 338 338 338 339 340 339 337 335 336 337 336 337 338 339 339 338 339 340 339 337 335 332 332 337 339 338 339 338 339 339 338 339 339 339 339 334 329 330 330 329 330 330 327 324 325 326 327 327 328 328 327 324 322 320 319 319 318 316 313 311 309 308 307 304 303 304 304 305 306 306 307
342 342 342 341 340 340 339 340 339 339 339 338 338 338 338 338 338 339 340 339 337 336 338 338 339 339 340 340 340 340 340 340 340 338 336 332 332 336 338 338 339 338 338 338 338 339 339 339 339 334 329 329 330 329 329 329 326 323 323 323 323 323 324 324 323 321 321 321 320 319 318 315 311 309 308 307 305 304 304 304 304 305 305 305 305
342 341 341 341 340 340 339 339 339 339 339 338 338 338 338 339 339 340 340 339 337 338 339 340 340 341 341 342 341 341 341 341 341 339 337 334 332 334 337 338 338 338 338 338 338 338 339 339 340 336 330 329 329 328 330 329 325 323 323 324 323 322 321 320 319 318 318 319 320 318 316 312 310 309 308 306 304 304 304 304 304 305 305 304 304
341 341 341 340 340 340 340 339 339 340 339 339 338 337 338 339 340 340 340 338 338 338 339 339 340 341 341 342 342 342 341 340 340 339 339 336 332 333 336 337 337 337 338 338 337 337 339 339 340 338 332 328 328 327 329 330 327 326 327 326 323 322 322 320 318 316 313 314 316 316 313 310 309 308 307 305 304 304 304 304 305 305 306 305 304
341 341 341 341 340 340 340 339 340 340 339 339 339 338 339 340 340 340 340 339 339 339 339 340 340 340 341 341 342 342 341 341 340 339 338 336 333 333 336 337 337 338 337 338 337 337 338 339 339 339 334 330 327 326 328 328 327 328 328 325 324 325 323 319 318 316 313 312 313 313 311 309 309 308 306 305 305 305 305 304 305 305 306 306 305
341 342 342 341 341 340 340 339 339 340 339 339 339 339 340 340 340 340 339 339 339 339 339 340 340 340 341 341 342 342 341 341 340 339 337 335 334 334 336 337 338 338 338 338 338 337 338 339 339 338 336 332 328 326 328 328 326 328 327 325 328 328 322 318 318 316 313 312 311 311 310 309 308 307 306 305 305 305 304 305 305 305 305 305 304
341 342 342 341 341 340 340 339 340 340 340 340 340 340 340 340 340 340 340 339 339 339 339 339 339 340 341 341 342 341 341 340 339 338 336 336 335 335 336 336 337 338 338 338 338 337 337 339 339 338 337 335 331 328 328 328 327 328 328 327 329 327 322 321 320 316 314 312 311 310 309 309 308 307 306 305 305 305 304 304 305 305 305 305 303
342 341 341 341 341 340 340 340 340 340 340 340 340 340 340 340 341 341 341 340 340 340 340 340 340 340 341 342 342 341 340 339 339 337 336 336 336 336 336 336 337 338 338 338 337 336 337 339 339 337 336 336 335 331 328 328 329 329 329 329 329 326 322 321 320 316 314 312 310 310 309 309 308 307 306 305 305 305 305 305 305 305 305 305 303
342 341 341 342 341 340 340 340 340 340 340 340 340 340 340 340 341 341 341 341 340 340 340 340 340 341 341 341 340 340 339 339 338 337 337 337 337 336 336 337 338 338 337 337 336 337 338 339 338 337 337 335 335 333 330 329 330 330 329 329 327 323 320 320 318 316 313 311 310 309 309 309 308 307 305 305 305 305 305 305 305 305 304 304 303
342 341 341 341 341 341 340 340 340 340 340 340 340 340 340 340 341 341 341 341 340 340 340 340 340 340 340 340 340 339 339 339 338 337 337 337 337 337 337 338 338 337 336 336 336 337 338 339 338 337 336 335 334 334 332 329 330 331 329 328 325 322 319 318 316 314 312 311 311 309 309 309 308 307 306 305 305 304 305 304 304 304 304 304 303
342 341 341 341 341 341 340 340 340 340 340 340 340 340 341 341 341 342 341 341 340 340 339 339 339 340 340 340 340 339 339 338 338 337 337 337 337 337 338 338 337 336 335 335 335 337 338 338 338 336 335 335 334 334 333 330 328 328 326 325 326 325 322 320 317 315 313 311 310 310 309 308 308 308 306 304 304 304 304 304 304 304 304 303 302
Wind_Speed
24 27 27 26 24 22 20 19 19 19 18 18 18 18 19 19 20 20 20 21 21 21 21 21 21 21 20 20 19 19 19 19 18 17 15 14 13 13 12 12 11 9 8 6 5 6 7 9 10 12 14 15 16 17 18 18 17 16 17 19 18 18 17 16 16 16 15 14 14 13 13 13 13 13 14 12 13 15 13 12 13 13 13 12 12
30 29 28 27 25 23 21 20 20 20 18 18 18 18 19 19 19 19 20 20 20 21 21 21 21 20 20 20 19 19 19 18 17 16 15 13 13 12 11 10 9 7 5 4 5 8 11 12 12 14 15 16 17 18 18 17 16 15 16 17 17 16 16 15 15 15 14 14 13 14 13 13 13 12 13 12 12 14 13 13 13 13 13 12 12
32 31 29 28 26 24 22 21 21 19 18 18 18 18 18 18 18 19 20 20 19 19 19 19 20 20 20 19 19 19 18 17 16 15 14 12 11 10 9 8 7 6 6 7 10 12 14 14 14 15 15 16 17 17 16 15 15 16 16 16 15 14 12 12 12 12 13 12 13 14 13 12 11 11 11 11 11 12 13 13 13 13 12 12 12
32 32 29 28 26 25 23 21 21 20 19 18 18 18 18 18 18 19 19 19 18 18 18 18 18 19 18 18 18 18 17 17 15 14 13 11 10 9 8 8 7 8 10 12 13 13 14 14 14 15 15 16 16 16 15 15 15 15 15 15 14 12 10 9 9 9 10 11 12 12 13 13 11 10 9 9 10 12 12 11 12 12 12 12 13
32 33 30 30 26 26 24 22 22 20 19 18 18 18 18 18 18 18 19 18 18 18 18 17 17 18 17 17 16 17 16 16 15 14 13 11 10 9 8 8 9 11 13 13 12 12 13 14 13 13 14 15 16 15 14 14 15 15 15 14 13 11 9 8 6 7 8 10 10 10 12 13 12 10 8 8 9 11 11 11 11 11 11 12 13
33 33 32 31 28 27 25 23 22 21 20 19 19 18 18 17 17 18 19 18 18 17 17 17 17 17 17 16 16 16 15 15 14 13 13 12 10 9 9 9 11 12 13 12 12 12 12 13 13 12 13 14 15 14 14 14 14 14 14 14 13 11 9 8 6 6 7 8 9 9 11 12 11 9 8 8 8 10 11 12 12 11 10 12 12
33 34 33 32 30 28 25 25 22 22 20 19 19 18 18 17 17 18 18 18 18 17 17 18 17 16 15 15 15 15 14 14 13 12 12 12 10 10 10 11 12 12 12 11 11 12 12 12 12 12 13 14 14 14 13 13 12 12 13 14 13 11 10 9 7 7 6 7 8 9 9 10 10 9 7 7 8 9 10 12 12 11 11 11 10
34 34 33 32 31 29 26 26 23 22 20 20 19 18 18 17 17 18 18 18 18 17 17 17 16 15 15 14 14 14 14 13 12 13 12 11 10 11 11 12 12 12 12 11 11 11 11 12 12 12 13 14 14 13 12 11 11 11 12 14 14 13 11 10 8 8 7 6 7 9 9 9 10 9 7 7 8 9 9 10 11 11 11 11 9
35 35 34 33 32 29 27 27 24 23 21 21 19 19 18 17 18 18 18 18 17 17 17 16 15 15 14 14 14 14 14 13 12 12 11 10 11 12 11 12 12 12 11 10 10 11 12 13 13 14 14 14 13 12 11 11 11 11 11 13 14 14 12 10 8 7 6 6 6 8 9 8 9 9 7 6 7 8 9 9 11 11 11 10 9
35 34 34 33 32 29 28 27 25 24 22 21 20 19 18 17 18 17 18 17 17 16 16 15 15 15 14 14 13 13 13 12 12 11 11 10 11 11 11 12 12 10 11 10 11 12 13 14 14 14 14 13 12 11 10 10 11 11 11 12 13 13 12 10 9 6 4 4 5 7 8 8 8 8 7 6 7 8 9 10 11 11 10 10 9
35 33 33 33 31 28 28 27 25 24 22 22 20 19 18 18 18 17 17 17 17 16 16 15 15 15 14 14 13 12 11 11 11 11 11 11 12 11 11 13 11 10 10 10 11 13 13 13 14 14 14 13 12 10 10 10 10 10 10 10 11 12 12 10 9 9 6 2 3 6 8 8 8 7 7 6 6 7 9 10 11 11 11 11 10
33 32 33 32 30 28 29 27 26 24 22 22 20 19 18 18 18 17 17 17 17 16 15 15 15 15 14 13 12 12 11 11 11 11 11 11 12 11 12 12 10 10 9 10 12 13 12 13 13 13 13 12 11 10 9 9 9 9 9 8 10 11 11 10 9 10 8 4 4 5 7 8 7 7 8 6 5 6 7 9 10 11 12 11 11
32 31 32 32 29 27 29 27 26 24 23 22 21 20 18 18 18 17 18 17 17 16 15 15 16 15 14 13 12 11 11 11 11 12 12 12 12 11 12 12 10 10 10 12 12 12 12 12 12 12 12 11 10 8 8 8 8 7 7 7 8 10 10 9 9 9 9 6 6 6 6 7 6 7 8 5 5 5 6 8 9 10 11 10 11
34 31 32 32 29 27 27 27 27 24 24 23 21 20 19 19 18 18 18 17 16 16 15 16 16 14 13 12 11 11 10 10 11 12 13 13 13 13 12 11 10 10 11 12 11 11 11 11 11 11 10 10 8 7 6 6 6 6 6 6 7 9 9 9 9 8 8 7 8 7 6 7 6 7 7 6 5 5 6 7 8 8 8 8 9
36 33 33 33 29 27 26 26 26 25 24 23 22 21 20 20 19 18 18 17 16 16 16 15 15 13 11 10 10 9 9 9 10 11 12 12 13 13 12 11 10 11 12 12 11 11 10 10 10 10 9 8 7 6 5 5 5 5 5 5 6 8 9 9 9 8 7 7 9 8 7 7 6 7 7 6 5 5 6 7 7 8 8 8 8
33 33 34 33 31 28 27 25 25 25 24 23 23 21 21 21 20 19 18 17 17 16 15 15 15 13 11 9 9 8 8 9 9 11 12 12 13 12 11 10 10 12 13 12 11 10 10 9 9 8 8 7 6 5 4 4 4 5 6 6 6 8 9 9 9 9 9 9 10 9 8 7 6 7 7 6 5 5 6 7 8 8 8 8 7
30 31 33 33 32 30 28 26 25 25 24 23 23 22 22 22 20 19 18 16 17 16 16 15 15 13 11 10 8 8 8 8 9 9 10 11 12 12 11 10 10 12 12 11 10 9 9 8 8 7 6 6 5 4 3 3 4 5 6 6 7 9 9 9 10 10 10 11 11 9 8 7 6 7 7 6 5 6 6 7 7 7 8 8 8
28 30 32 33 32 31 29 28 25 25 24 23 22 22 21 21 20 19 18 16 17 17 16 15 14 14 11 10 8 8 8 7 8 8 9 10 10 10 10 10 11 12 11 10 9 8 7 7 6 6 5 4 3 2 2 3 4 6 6 7 8 9 9 9 10 10 11 11 11 9 8 7 6 7 7 6 6 7 6 6 6 7 8 9 9
27 29 30 31 32 31 30 29 26 26 26 24 22 21 21 21 19 19 19 17 17 17 17 16 14 14 12 10 9 9 8 6 7 8 8 8 8 8 8 10 11 11 10 9 8 7 6 6 5 4 3 3 1 1 2 3 4 5 6 7 8 9 8 8 9 10 11 11 10 8 7 6 7 7 7 6 6 7 6 6 7 9 10 10 11
25 27 28 30 31 31 30 29 28 27 26 25 23 23 22 21 20 19 19 17 17 17 17 16 14 15 13 11 10 10 9 7 6 8 8 7 7 7 7 9 10 10 9 8 7 6 6 5 4 4 3 2 1 0 2 3 4 5 6 6 7 7 7 7 8 10 10 10 9 7 7 7 8 8 8 7 7 8 7 8 10 11 12 12 13
24 25 28 29 31 31 31 30 29 27 26 26 24 25 23 22 21 19 18 17 16 16 16 16 14 14 13 12 11 11 10 8 8 7 8 7 7 7 7 8 8 9 8 8 7 7 6 5 5 4 3 2 1 1 3 4 4 4 4 5 6 6 7 8 8 9 10 9 8 8 8 9 9 9 9 9 9 9 9 10 11 12 13 13 14
23 24 27 29 31 31 31 31 30 28 27 26 25 26 24 23 22 20 19 17 16 16 16 16 15 14 14 13 12 11 10 9 9 7 7 7 6 7 7 7 8 8 8 8 8 7 7 6 5 5 3 2 1 3 4 3 3 2 2 3 5 5 6 8 9 9 10 9 9 9 10 10 11 10 10 10 10 11 11 12 13 13 14 14 14
24 26 27 28 30 30 30 31 30 29 28 27 26 26 25 24 23 21 20 18 17 17 17 17 17 15 14 14 13 12 10 9 8 7 5 5 5 5 6 7 8 8 8 8 8 8 8 6 5 3 1 2 4 4 3 3 2 1 1 2 3 4 5 7 9 10 9 9 10 11 12 12 12 11 11 11 11 12 13 13 14 14 14 15 14
25 26 27 28 29 29 30 31 30 29 29 28 28 28 26 25 24 23 21 20 18 17 18 18 17 16 15 14 13 11 10 8 8 7 6 6 6 6 6 7 7 8 7 8 8 7 6 4 2 1 3 4 4 3 3 3 2 2 2 2 3 3 4 7 9 10 9 10 11 12 13 13 12 12 12 13 14 14 14 15 15 15 15 15 15
23 25 28 30 30 30 30 31 31 31 30 30 30 29 28 26 25 24 22 21 20 18 18 18 17 16 15 14 12 11 9 8 8 9 9 8 7 6 7 7 7 7 7 7 6 5 4 3 3 3 3 3 3 2 3 3 3 4 4 4 4 4 4 6 9 10 10 11 12 13 13 13 13 13 14 15 15 15 15 16 16 16 16 17 17
22 24 27 30 31 31 31 32 32 32 31 31 31 31 29 28 27 25 24 22 22 20 19 19 17 16 15 14 12 11 9 8 9 9 9 8 8 7 6 6 6 6 6 6 5 4 4 3 3 3 2 3 3 2 2 3 3 4 5 5 6 6 6 7 9 10 11 13 13 14 14 14 15 15 16 15 15 15 16 17 17 17 18 18 19
22 23 25 28 30 31 31 32 32 32 32 31 31 31 30 29 28 26 25 24 23 22 21 20 18 16 15 14 13 11 10 9 10 10 9 8 7 7 6 5 4 4 4 5 5 4 4 4 3 2 2 3 2 1 1 2 3 4 5 6 6 7 7 7 10 11 12 14 14 14 15 15 16 15 15 15 15 16 17 18 18 17 18 18 18
21 22 25 27 30 31 31 32 31 31 32 31 30 30 30 29 28 26 25 25 23 23 23 21 19 17 16 14 13 12 10 11 11 10 9 8 7 6 4 3 2 2 3 4 4 4 4 4 3 2 2 2 1 0 1 1 1 2 3 5 6 6 7 9 12 12 13 15 15 14 15 16 15 15 15 15 15 16 17 17 17 17 18 18 19
22 23 25 27 30 32 31 32 31 31 32 31 30 30 29 29 29 28 26 25 24 25 24 22 20 18 17 15 14 12 12 12 11 9 8 7 6 5 3 2 1 2 3 4 4 4 4 3 3 2 2 1 1 1 1 2 2 2 1 3 6 7 8 10 13 14 15 16 16 15 15 16 16 15 15 14 14 15 16 16 16 16 18 19 20
24 26 27 29 31 33 33 34 33 32 32 31 31 30 29 29 30 29 28 26 25 25 24 23 21 19 18 16 15 13 12 13 11 9 8 7 5 4 3 2 2 2 3 4 4 4 4 4 3 2 1 1 1 1 2 2 2 4 5 4 7 9 10 13 15 15 16 17 17 16 16 16 16 15 14 14 14 15 16 16 16 16 17 19 20
26 28 30 31 32 34 34 35 34 32 32 32 31 31 29 29 30 30 28 27 26 25 24 24 22 20 18 17 15 14 13 13 10 9 7 6 5 4 3 2 2 2 2 3 4 4 4 4 4 2 2 1 1 0 1 1 2 2 2 6 11 12 13 16 17 17 17 18 19 18 17 16 15 15 15 15 15 15 15 16 17 17 17 18 19
26 29 31 32 33 35 35 35 34 32 32 32 31 30 30 29 29 29 28 27 27 26 25 25 24 20 19 17 16 14 14 13 10 9 7 6 5 4 3 1 1 1 2 3 5 5 5 5 3 2 2 1 1 1 0 1 3 5 7 13 14 13 16 19 18 18 18 19 19 18 17 16 15 15 15 14 14 15 15 16 17 17 16 17 18
24 26 28 31 33 34 34 34 34 33 32 32 31 30 30 29 29 29 29 27 27 27 25 25 24 21 19 18 16 15 15 13 10 9 8 7 6 5 3 1 1 2 3 5 6 6 5 5 3 2 2 2 2 2 1 3 6 9 11 14 14 15 19 20 19 18 18 19 19 18 17 17 16 15 14 13 13 14 14 15 16 17 17 17 18
24 25 27 29 32 32 33 34 34 33 32 31 31 30 30 30 28 28 29 28 27 27 26 26 24 21 20 18 17 17 15 13 11 9 9 8 7 6 4 2 2 3 3 5 7 7 6 5 3 3 3 1 2 2 3 6 8 10 12 14 15 19 21 20 19 18 19 19 18 17 17 16 15 14 14 13 13 13 14 15 16 17 17 17 18
27 26 27 28 29 30 32 32 33 33 32 31 31 30 30 29 28 28 28 29 28 27 26 25 24 21 20 19 18 18 16 14 12 11 10 9 9 7 6 4 4 4 3 4 6 7 6 5 4 4 3 1 2 3 6 8 9 11 13 15 18 21 21 21 20 19 20 20 19 18 17 16 15 14 14 14 15 14 14 15 17 17 17 18 18
29 28 28 28 28 29 30 31 32 33 32 31 31 31 30 29 28 27 28 29 28 27 25 24 23 21 20 20 19 18 16 14 12 12 11 11 10 8 7 6 6 6 5 5 5 5 6 5 5 4 3 3 3 5 8 10 11 13 15 18 21 22 22 21 20 21 21 20 20 18 17 16 15 14 14 14 15 15 15 16 17 17 18 18 18
29 29 29 29 29 28 28 29 31 33 33 31 31 31 30 29 29 26 26 28 28 26 23 23 22 21 21 20 20 18 17 14 13 13 12 12 11 9 8 7 7 7 7 7 6 6 6 5 5 5 4 5 6 9 12 13 14 16 18 21 22 22 22 22 22 22 22 21 20 18 17 16 15 14 14 14 15 14 15 16 17 17 18 19 19
28 29 30 30 31 30 28 28 30 32 32 32 31 31 31 29 28 26 25 26 26 24 22 22 22 21 21 20 19 19 17 14 14 14 13 13 12 10 9 9 8 8 9 9 7 7 6 6 6 5 5 7 10 13 16 18 19 20 21 22 21 22 22 23 23 23 22 21 19 18 17 16 16 15 15 15 14 14 15 15 16 18 19 19 20
28 29 30 31 31 31 30 29 30 31 31 31 31 31 30 29 27 26 25 26 25 23 22 23 22 22 21 20 19 19 17 14 14 14 14 13 13 11 10 10 10 9 10 9 9 9 8 8 8 6 8 11 14 18 20 20 22 22 22 21 20 22 23 23 24 23 22 20 19 18 17 17 16 16 15 15 14 15 16 15 15 17 19 18 20
28 29 30 31 32 32 31 31 31 31 31 30 30 30 29 28 27 26 26 27 26 24 23 23 22 22 21 19 19 19 17 15 15 15 14 14 14 11 9 10 11 11 10 10 10 10 9 9 9 9 13 15 16 18 17 18 23 25 24 23 21 21 22 24 24 23 21 19 18 18 18 18 17 16 15 15 15 16 17 17 15 16 17 18 19
27 30 32 33 34 34 34 33 32 32 32 31 30 30 29 28 28 28 27 27 26 25 24 23 23 22 21 20 19 18 17 16 15 16 16 16 16 12 9 10 11 11 10 10 10 11 10 10 10 11 16 17 18 17 17 22 24 24 23 23 23 22 21 22 23 21 20 19 18 18 19 19 18 17 16 16 16 17 17 17 16 15 16 18 19
30 33 35 35 35 36 36 36 34 35 34 34 32 31 30 30 28 27 27 26 25 25 25 24 23 22 21 20 19 18 17 16 16 17 18 18 17 14 11 10 11 11 11 11 11 12 11 11 11 11 17 19 18 20 23 23 20 18 20 19 19 20 20 21 21 19 19 18 18 19 19 19 18 17 17 17 17 18 18 18 17 16 17 19 20
31 33 33 34 35 36 38 37 37 38 37 35 34 32 32 31 28 26 25 25 25 25 24 22 22 22 21 20 19 19 18 18 17 19 19 18 19 17 13 11 12 12 13 12 12 13 13 12 13 11 17 21 18 20 23 19 18 20 19 12 7 9 12 15 17 16 17 18 19 20 19 19 18 17 17 17 18 18 18 18 18 17 18 19 21
29 31 33 34 37 38 39 38 38 39 38 36 34 33 32 30 28 25 24 25 24 24 24 23 23 23 23 22 21 20 20 19 19 19 20 19 19 19 16 13 13 14 14 14 13 14 14 13 14 13 16 24 20 19 19 20 26 24 12 6 4 5 4 6 12 14 14 17 18 19 19 18 18 17 17 18 18 18 18 18 18 18 17 18 19
30 33 36 37 39 39 39 38 39 39 38 36 34 32 30 28 26 24 23 24 23 22 24 25 25 25 24 23 22 21 21 21 20 20 20 20 19 18 17 15 13 14 15 15 15 14 14 14 13 15 15 22 23 21 19 20 27 25 16 10 5 3 3 8 11 10 10 12 15 18 19 18 17 17 17 18 18 18 17 18 18 17 16 16 16
32 36 39 39 39 38 38 38 39 39 37 35 34 33 31 28 27 26 25 24 22 22 24 25 25 25 25 24 22 22 22 21 21 20 20 20 19 18 17 15 14 14 15 15 16 15 15 15 14 15 16 16 22 23 19 20 23 16 16 18 8 7 14 13 7 5 7 9 11 16 18 18 18 17 17 18 17 17 17 17 16 15 15 15 16
35 37 36 37 38 37 38 38 39 38 37 35 35 35 32 30 30 30 28 26 24 23 23 24 24 24 24 24 23 23 22 22 21 20 20 19 18 18 17 17 15 15 15 16 16 17 15 14 14 14 15 15 16 21 20 25 26 14 13 15 5 13 29 22 10 7 6 6 8 13 16 17 18 17 17 17 16 16 17 16 14 14 14 14 15
36 34 33 36 38 38 38 39 39 39 37 36 36 37 35 32 31 32 31 29 27 24 23 23 23 23 24 24 24 23 22 22 21 20 20 19 18 18 18 17 17 16 16 17 17 17 15 14 15 15 15 16 16 17 19 26 29 19 15 12 5 17 28 24 23 19 9 5 6 9 12 16 17 17 16 16 15 15 15 14 13 12 12 13 14
34 32 35 37 36 36 37 38 39 38 37 36 37 38 36 34 33 33 31 29 27 25 23 22 21 22 23 23 23 23 22 21 21 21 20 20 19 18 18 18 18 17 17 17 17 16 15 15 15 15 16 16 17 17 17 24 30 25 18 12 13 22 19 15 22 22 15 10 6 5 10 14 15 15 16 15 15 14 14 13 12 11 11 12 13
30 31 33 32 31 33 35 37 38 37 37 37 38 38 37 35 35 35 32 29 26 23 21 21 21 21 22 22 22 22 22 21 21 21 21 21 20 19 18 18 17 17 16 17 17 16 15 15 15 16 16 16 17 18 18 20 25 26 21 14 18 23 16 11 15 18 16 11 7 8 13 13 12 13 14 14 14 13 13 12 11 11 11 12 13
25 27 29 29 31 33 35 37 37 36 36 38 38 39 38 36 36 35 33 30 27 24 22 22 22 22 22 22 21 21 21 21 20 21 21 21 21 19 18 17 17 16 16 16 16 16 15 15 16 17 16 16 17 18 19 18 19 21 19 17 21 25 21 18 20 22 18 13 10 9 12 15 14 13 13 13 14 14 12 11 11 11 10 11 12
Wind_Direction
172 170 165 167 166 161 160 156 150 148 146 146 142 138 138 137 137 137 138 138 138 139 139 138 138 137 135 133 131 130 129 128 127 126 125 125 125 123 121 118 117 118 120 117 107 105 118 117 111 115 117 119 121 118 112 106 101 93 88 87 85 84 82 82 84 85 86 86 86 85 79 75 76 72 68 76 72 64 71 75 73 72 68 67 68
168 169 165 167 165 161 161 156 153 151 149 148 143 140 140 140 139 139 140 140 140 139 139 139 139 139 138 136 135 133 132 132 131 128 127 127 128 124 120 119 118 114 111 109 110 113 120 121 118 122 123 125 124 121 115 108 97 86 83 80 76 76 76 75 77 79 83 85 85 84 80 78 76 71 64 69 70 61 68 74 72 72 69 67 67
161 166 165 166 164 162 161 157 154 153 153 150 145 143 142 142 140 139 141 140 139 138 138 138 139 139 138 137 136 135 134 133 130 128 126 126 127 123 119 117 111 99 99 105 113 115 118 121 121 123 125 127 127 124 118 109 94 83 78 71 66 64 65 68 70 74 78 82 83 82 82 83 80 77 68 68 70 61 68 74 71 72 72 70 68
159 163 164 164 164 164 161 158 157 156 156 152 148 146 145 144 141 142 141 140 139 138 138 136 137 136 135 135 134 135 134 132 131 131 129 128 128 127 119 110 104 101 102 105 110 113 116 120 122 122 124 127 128 126 118 106 93 83 75 67 62 57 56 60 66 72 75 79 81 81 81 85 86 86 79 71 68 64 71 76 71 69 68 68 67
159 161 163 164 165 165 161 160 160 160 159 154 151 148 147 146 144 144 143 141 140 140 140 137 136 136 135 134 134 134 134 134 135 135 132 129 132 131 118 108 110 110 109 109 109 112 114 117 119 120 124 127 127 125 116 105 94 83 74 65 59 54 52 56 67 75 77 79 80 81 80 84 85 87 85 72 67 69 76 78 75 72 68 67 67
161 162 164 164 166 165 164 163 163 164 162 157 154 151 150 148 148 146 145 144 142 142 142 140 136 137 137 136 136 136 135 137 137 138 138 138 140 133 121 116 114 113 114 113 111 111 111 113 114 116 121 125 125 121 112 102 91 81 73 67 60 55 53 56 71 82 82 80 82 83 79 81 83 84 82 75 74 72 74 73 75 75 72 71 71
162 163 164 166 167 165 166 167 167 168 164 161 157 154 153 151 151 148 146 146 145 144 143 143 139 140 140 139 140 139 139 140 140 146 150 149 144 131 124 120 116 117 116 114 112 110 107 108 108 111 117 122 121 115 106 97 87 80 76 70 64 59 57 60 76 90 87 81 84 83 78 79 82 83 72 73 82 73 69 66 71 75 74 74 69
162 165 166 168 168 166 168 170 171 171 167 164 161 157 156 154 153 150 149 147 148 146 146 148 143 144 143 142 144 144 145 143 145 153 156 151 141 131 128 125 124 124 120 117 114 110 108 109 108 111 116 119 117 110 101 94 85 81 78 73 68 64 60 63 76 87 84 79 82 83 80 77 80 85 71 70 80 73 70 63 70 72 71 73 63
164 167 168 169 168 167 169 173 174 174 170 167 163 159 158 158 156 153 152 151 150 148 149 150 145 145 144 143 144 145 147 145 147 152 154 152 141 133 134 134 131 128 127 125 117 114 115 114 113 115 118 120 117 110 102 94 87 83 79 75 72 68 65 67 72 78 76 69 76 81 78 76 78 86 82 76 82 80 81 70 69 71 69 70 60
164 167 170 170 169 168 171 175 176 175 173 169 166 162 161 160 158 156 154 152 152 150 151 150 147 146 145 145 145 146 147 147 150 150 153 155 145 138 143 141 134 134 134 127 120 121 119 116 116 118 122 122 119 112 104 96 90 83 78 74 72 69 67 66 64 65 70 65 70 76 75 73 73 83 89 78 82 84 82 72 67 71 69 67 60
165 168 170 171 169 170 173 177 178 177 175 170 168 165 164 162 160 159 156 153 153 153 152 151 149 148 148 147 146 150 151 153 154 152 156 156 148 144 149 144 138 139 134 126 125 125 121 118 117 120 124 124 122 114 106 98 92 80 74 71 67 65 66 61 54 50 55 83 77 72 70 67 67 78 86 76 77 78 75 72 68 68 64 62 60
166 168 171 171 169 172 175 178 179 178 176 172 170 166 166 165 163 163 160 156 155 155 154 152 151 149 148 148 148 151 154 159 160 157 156 154 151 149 150 147 143 141 136 134 131 127 123 120 119 121 124 125 123 117 107 99 93 79 70 66 60 59 61 58 51 41 45 82 104 75 64 63 65 74 85 82 76 74 72 70 67 64 60 56 54
165 168 170 170 170 174 175 178 179 178 177 174 172 170 170 169 167 166 163 159 158 157 155 155 153 149 146 145 145 145 148 154 160 162 159 157 156 154 153 150 148 147 145 140 134 130 127 124 123 123 124 126 126 121 111 101 95 80 65 58 51 52 55 55 51 41 40 70 108 89 64 60 62 69 84 81 67 63 60 60 60 60 56 52 48
167 169 170 170 170 172 175 178 179 179 178 176 175 173 173 171 170 170 166 162 160 159 157 157 155 151 146 142 140 138 139 144 150 160 162 161 161 159 157 156 155 155 150 143 138 135 131 128 127 126 127 129 129 125 116 106 96 76 62 48 41 47 52 53 50 42 42 70 102 93 65 59 57 66 77 68 59 53 46 47 51 52 48 45 37
171 171 171 173 171 172 175 178 180 180 179 178 178 176 176 172 171 174 169 164 163 161 160 159 153 153 155 147 142 137 134 138 142 154 161 162 164 163 161 162 162 159 153 148 146 140 137 135 131 131 132 133 133 131 123 108 89 67 53 39 36 46 50 51 48 47 53 77 96 88 63 56 53 62 69 59 52 45 43 38 34 33 29 28 21
171 170 171 173 172 174 176 178 180 180 180 180 181 179 178 174 175 177 171 167 166 164 165 159 150 155 167 161 152 146 140 141 143 151 159 161 164 164 164 167 167 163 157 154 151 147 143 139 137 138 136 138 137 135 126 102 78 57 44 39 44 52 53 50 51 58 67 81 88 78 60 55 52 61 67 56 48 44 44 35 25 22 19 15 9
169 167 168 170 172 174 176 179 179 180 181 181 184 182 179 176 178 179 171 171 170 168 169 161 152 159 175 173 165 160 153 148 146 151 158 162 165 166 168 172 170 167 162 158 156 152 148 144 145 143 140 143 140 135 117 86 63 47 40 44 53 59 59 53 59 68 75 82 81 71 60 56 52 60 66 56 50 49 46 35 21 15 12 8 11
166 166 168 170 172 174 177 180 179 181 182 181 186 183 181 179 180 179 173 175 173 172 172 163 156 162 177 182 172 168 165 159 154 153 153 158 165 171 176 178 173 168 166 162 160 156 154 155 154 152 150 149 145 131 89 63 51 44 46 50 57 65 64 60 69 78 82 83 76 69 63 60 61 67 68 58 54 53 47 34 19 18 18 19 26
164 166 168 171 172 174 178 180 181 184 184 183 184 182 183 181 180 180 177 177 175 176 175 169 164 166 177 182 172 170 176 173 167 162 152 148 155 167 177 178 173 171 170 166 163 164 168 172 170 167 167 167 165 102 41 51 54 50 53 56 60 67 69 68 81 88 87 83 73 69 68 70 75 75 74 67 61 55 48 39 32 34 35 37 40
164 167 168 172 173 175 178 181 184 187 186 184 181 181 185 182 181 184 182 180 178 180 179 174 172 172 178 180 175 179 185 183 176 167 154 148 149 156 164 170 173 173 174 173 173 178 185 192 191 194 198 205 221 24 49 68 67 57 54 57 63 67 68 72 90 96 89 83 73 71 75 82 85 83 81 75 67 59 57 56 51 49 48 48 49
166 169 171 173 175 177 179 182 186 188 187 185 183 182 184 183 183 185 184 184 183 183 181 178 179 180 181 182 183 190 192 186 182 174 160 156 155 157 162 168 175 180 183 186 189 196 204 212 215 220 228 235 247 95 99 95 76 63 55 55 64 63 64 72 93 104 92 81 75 75 81 86 88 87 84 80 77 71 68 68 63 58 55 54 53
170 172 175 176 176 178 181 183 185 188 187 185 184 182 183 184 185 186 186 187 188 187 184 184 186 187 187 187 192 197 196 190 190 188 175 167 164 166 171 176 183 189 195 200 206 213 220 229 234 241 251 244 123 108 107 106 89 80 66 57 62 52 57 74 92 105 93 80 78 82 87 89 89 87 85 85 84 81 76 73 69 64 59 56 52
172 176 179 180 179 180 184 184 184 187 187 185 185 182 182 185 187 187 187 189 193 193 189 189 191 192 192 195 199 203 203 201 203 205 198 189 187 188 186 187 190 195 200 207 214 221 228 236 242 248 220 135 114 110 109 120 119 114 102 75 69 48 52 77 91 101 93 82 84 87 90 90 88 88 87 85 84 83 79 74 69 64 58 54 49
175 179 180 182 183 183 186 186 184 187 187 186 185 183 182 187 188 187 190 191 196 199 194 195 196 197 199 203 205 207 208 213 216 213 215 212 203 201 198 197 196 196 200 205 212 219 225 228 218 164 137 128 113 112 120 133 124 108 106 100 97 72 63 80 94 101 92 87 91 93 93 92 89 88 88 86 83 82 77 71 65 59 53 48 43
176 179 182 184 186 186 188 187 186 188 189 187 186 183 183 189 189 189 192 192 197 203 202 201 201 202 205 209 211 210 210 214 212 204 209 209 197 195 197 200 198 196 203 205 206 207 201 183 151 136 135 120 112 121 129 131 112 97 97 98 105 102 84 85 100 104 95 95 99 98 95 93 91 89 89 87 82 76 71 66 60 52 47 42 39
177 182 185 186 187 188 190 189 189 191 191 190 188 184 184 190 191 190 192 195 199 203 206 207 206 208 209 212 213 209 209 207 200 197 201 200 191 191 194 202 203 200 206 203 197 189 171 152 135 130 121 113 121 131 124 113 101 96 98 101 105 107 96 92 107 109 103 103 103 101 98 91 89 89 87 83 78 73 66 60 54 50 46 42 39
178 184 187 187 190 191 192 191 191 194 193 192 189 185 185 191 192 191 193 197 201 203 207 208 209 212 211 213 211 209 209 201 195 196 198 197 193 192 194 205 207 205 205 196 184 171 153 135 124 117 110 123 135 140 115 94 95 103 108 111 111 112 101 99 114 117 112 108 104 100 97 93 90 88 84 80 76 69 63 56 51 48 45 41 38
178 185 188 189 191 193 195 192 191 195 194 192 191 187 187 193 193 191 196 199 202 206 208 209 211 213 214 213 212 213 211 204 199 196 199 202 198 195 199 207 198 191 192 179 165 153 140 125 115 114 120 135 153 143 61 58 63 97 124 128 132 128 108 109 123 124 117 110 105 100 97 96 93 89 85 81 74 67 63 57 51 48 45 40 38
181 186 189 191 193 195 197 194 193 195 194 192 192 189 189 194 194 192 197 200 205 209 210 211 211 213 215 215 216 217 212 209 205 200 205 204 200 203 207 198 129 141 161 158 150 143 137 130 124 124 130 144 208 306 31 46 355 300 240 174 161 147 120 122 131 129 121 114 107 102 100 97 93 91 87 80 71 64 59 56 52 47 46 43 41
186 187 190 193 194 196 197 197 195 196 195 193 193 191 191 196 196 195 197 201 207 211 213 213 212 214 216 217 219 218 212 211 206 204 208 203 204 208 200 171 128 125 134 137 138 142 143 145 141 139 160 201 231 286 39 23 295 280 270 221 175 154 130 132 137 131 124 115 109 106 102 99 96 91 83 74 69 62 57 58 56 48 48 48 46
192 190 192 194 195 196 198 198 196 196 195 194 195 193 193 197 198 197 199 202 208 213 215 216 215 215 217 219 220 217 210 207 205 207 208 204 203 200 190 165 130 116 131 134 136 142 144 150 151 152 182 200 220 211 42 316 257 262 229 161 154 146 135 137 140 135 126 118 115 112 106 101 96 90 81 77 73 66 62 60 57 53 53 50 48
198 195 194 193 195 196 198 198 196 197 196 195 196 194 195 199 200 200 200 203 209 213 217 219 218 217 218 219 219 213 207 204 205 209 210 205 201 200 199 175 130 163 173 165 158 155 152 157 161 170 203 224 196 147 50 232 144 117 124 138 143 141 138 141 142 136 129 125 122 118 112 106 99 93 88 85 81 76 71 66 62 59 56 51 51
203 203 199 196 197 197 197 197 197 197 198 197 196 195 197 200 202 202 203 204 209 215 218 220 219 218 218 218 216 210 206 205 207 212 215 210 210 215 216 216 246 207 193 195 192 181 171 173 179 195 228 242 170 149 187 177 144 126 129 140 144 140 141 144 143 138 133 129 126 121 117 112 104 99 94 88 83 79 75 71 67 62 57 55 56
204 205 204 201 200 199 198 197 197 198 198 199 197 197 198 200 203 204 205 207 211 217 219 220 220 218 218 218 213 209 208 209 211 217 220 219 222 227 230 234 232 209 189 198 199 191 184 189 198 215 238 226 164 167 173 161 151 140 138 144 143 141 144 145 142 138 135 131 128 124 119 114 108 102 96 89 81 75 72 69 65 60 58 59 60
202 203 204 204 204 202 200 197 197 198 198 199 199 198 200 202 204 205 207 209 213 218 221 221 221 218 219 219 214 211 212 213 216 223 227 228 230 238 245 241 229 208 182 187 192 189 193 201 208 223 234 203 176 170 160 155 151 143 139 140 140 141 143 143 140 138 135 132 128 123 117 111 105 101 97 90 82 74 68 65 61 60 63 64 62
200 201 201 202 205 205 203 199 197 197 198 200 200 200 202 204 206 207 209 211 214 220 222 222 221 219 221 221 216 214 214 216 221 226 231 231 234 247 252 244 227 210 205 205 200 199 205 211 217 224 222 206 189 159 151 151 145 136 133 135 137 142 143 141 140 137 135 131 125 119 114 109 104 99 96 90 84 76 67 61 60 64 69 68 64
198 199 200 200 202 205 206 204 200 198 198 199 200 202 204 206 209 210 212 214 217 221 222 222 223 222 223 222 219 216 215 218 224 229 232 231 236 250 253 244 225 215 222 221 212 211 215 222 219 214 212 193 168 150 143 142 137 130 129 133 136 141 142 140 139 137 135 130 124 118 113 108 104 99 92 87 82 74 65 62 65 70 71 69 66
197 199 201 200 201 202 204 207 204 201 200 200 201 203 206 210 213 214 214 216 220 221 222 223 224 225 225 222 219 218 216 219 226 230 231 231 237 248 248 240 227 218 223 223 219 218 219 222 214 203 191 170 156 146 137 133 130 124 122 127 133 137 137 137 136 136 133 128 123 118 114 108 103 100 93 86 78 67 62 65 73 77 73 69 67
196 197 200 201 201 199 201 205 205 203 201 201 202 204 207 210 213 215 216 219 222 221 221 223 225 226 226 222 220 220 220 222 226 228 230 232 238 244 240 233 227 218 219 223 223 222 221 216 210 190 155 145 146 138 125 119 116 114 114 116 122 129 131 134 133 131 129 124 122 118 113 110 106 101 95 86 75 65 64 69 77 83 79 72 67
194 195 198 199 198 197 199 202 204 203 201 201 200 202 204 206 209 211 214 218 221 220 221 223 224 225 224 222 222 223 223 226 227 225 228 232 235 238 233 227 222 215 220 229 229 230 229 224 214 175 135 127 136 136 132 127 112 100 100 104 110 118 123 127 128 127 125 123 123 119 114 112 109 103 95 84 74 68 70 74 80 91 91 82 73
191 195 197 198 198 197 198 199 201 201 200 200 199 200 201 202 205 207 210 215 217 218 219 220 222 224 223 222 223 225 227 230 230 226 227 230 231 231 227 220 215 216 229 239 239 238 236 235 218 168 137 131 128 128 145 144 120 98 92 91 95 102 111 120 123 123 125 125 123 119 117 116 110 104 95 85 76 71 74 79 84 92 91 84 77
190 195 197 198 197 197 198 198 198 200 201 201 200 201 203 203 203 205 209 212 214 215 217 217 219 223 223 222 224 227 231 233 234 230 228 230 229 229 227 219 217 223 233 239 239 239 239 238 224 175 144 144 136 135 149 145 126 117 110 96 86 88 95 104 110 115 120 124 124 121 120 118 111 105 96 84 78 77 79 83 87 91 87 80 75
191 194 197 196 195 197 198 198 197 200 202 202 201 202 206 207 207 208 209 210 212 213 215 216 217 222 226 225 226 230 233 235 236 234 232 234 232 230 228 223 225 231 236 239 239 238 237 235 232 202 148 146 153 156 162 155 139 131 119 111 108 93 84 87 92 100 114 120 125 126 123 118 111 104 94 84 80 81 84 86 88 90 86 79 75
188 191 194 195 196 198 197 196 197 200 202 202 202 204 207 209 210 213 213 213 215 215 218 220 221 224 227 229 230 232 234 236 237 237 236 237 235 233 231 228 231 235 238 242 244 242 239 236 236 225 163 145 155 174 180 169 155 147 123 89 120 120 101 98 87 81 100 115 121 127 125 119 113 104 94 86 85 87 89 90 88 87 85 80 77
189 193 195 196 198 198 197 196 197 200 201 201 202 203 205 207 207 211 214 214 216 216 216 220 223 226 228 231 232 233 235 236 237 239 239 237 237 236 232 232 234 236 239 242 248 249 245 243 239 235 197 157 158 179 192 181 167 162 150 135 135 126 142 144 118 85 88 106 118 129 126 121 116 107 98 93 93 94 93 94 92 88 86 82 80
194 198 199 198 199 198 195 194 196 199 201 200 201 203 204 204 202 204 207 208 209 211 212 217 223 227 229 231 233 234 236 236 238 240 237 236 238 237 232 234 236 238 241 243 251 251 248 247 241 239 227 191 170 172 181 183 181 180 165 161 171 170 154 147 131 85 93 101 116 131 130 125 119 110 103 99 98 97 95 97 95 90 87 84 83
200 201 199 198 199 197 194 193 194 198 200 199 200 202 203 204 204 205 208 209 207 210 214 219 225 228 229 230 233 235 236 236 238 238 236 235 238 237 234 237 240 243 245 246 252 253 251 249 244 240 235 223 194 170 166 178 187 203 191 177 188 170 163 158 155 141 121 111 119 129 132 131 124 113 107 104 101 98 96 99 98 92 88 85 85
202 199 197 198 199 196 193 191 193 197 199 198 200 202 204 204 205 208 212 214 212 212 214 218 223 226 227 228 230 232 233 235 237 236 235 235 237 238 237 239 243 245 247 249 254 254 250 243 239 236 228 226 219 191 173 179 189 200 197 190 177 165 165 164 162 153 137 130 128 126 131 133 129 119 111 107 105 102 99 101 102 95 89 88 88
201 197 197 199 198 194 191 190 193 197 198 198 200 202 205 206 206 209 212 215 215 213 212 211 214 218 221 223 225 227 230 233 235 235 235 236 238 239 240 243 246 248 250 251 251 249 246 240 234 232 225 220 220 215 197 187 191 195 192 181 154 155 158 159 157 146 133 141 149 148 141 133 127 121 117 113 109 106 104 104 103 98 93 93 91
200 197 197 196 193 191 189 189 192 195 196 198 199 201 204 206 207 209 210 212 211 208 205 203 205 209 214 218 221 224 228 231 233 234 235 237 238 240 243 247 249 250 252 251 248 245 242 241 236 230 226 220 216 219 215 200 197 199 196 182 159 156 154 147 150 143 134 134 140 153 154 144 132 126 125 120 115 110 108 108 105 103 98 95 92
195 193 193 191 190 190 189 190 192 194 196 198 199 200 202 205 208 209 209 209 208 203 197 195 197 202 207 213 218 223 227 230 233 234 235 236 237 240 244 247 249 250 253 251 247 244 240 236 234 230 225 221 218 219 219 210 206 205 203 199 186 177 176 176 170 159 146 136 134 144 153 145 134 133 134 126 119 115 112 111 109 105 100 99 97